Wind_Speed
51 51 51 51 51 51 50 49 49 49 48 47 47 47 47 47 47 47 48 47 47 48 48 48 48 49 49 49 49 50 51 51 52 52 52 52 52 52
52 52 51 51 52 52 51 51 51 50 49 48 48 48 48 48 48 48 48 47 48 49 49 49 49 50 50 50 51 52 52 53 53 53 53 53 52 53
53 53 52 52 53 53 52 52 52 52 51 49 49 49 49 48 48 48 48 49 50 50 50 50 50 50 51 51 52 52 53 53 53 53 53 53 53 53
53 53 53 53 53 52 53 53 52 52 52 51 50 50 50 50 50 50 49 50 51 50 50 50 51 51 51 52 52 52 53 53 53 52 52 52 53 52
53 52 51 52 52 52 52 52 52 52 52 53 51 50 51 51 51 51 50 51 51 50 50 50 51 51 51 52 53 53 53 53 53 52 51 52 52 52
52 51 51 51 52 51 51 50 50 51 52 52 52 51 51 51 51 50 50 50 50 50 50 50 50 51 51 52 53 53 53 53 52 51 51 52 52 52
52 51 51 51 51 50 50 50 50 51 51 51 51 51 51 51 49 49 49 49 49 49 50 50 51 52 52 52 52 52 52 52 52 52 52 52 52 52
50 49 49 50 50 49 49 49 49 51 50 50 50 50 49 49 49 49 49 49 50 50 50 51 51 51 51 52 52 52 52 52 52 52 52 52 52 51
48 48 49 49 49 49 50 50 50 50 50 51 51 50 49 49 50 50 50 50 49 49 49 49 50 50 51 51 51 51 50 51 51 51 51 51 51 51
47 47 48 48 49 49 50 49 49 49 49 50 50 49 49 50 49 49 49 49 49 49 49 50 51 51 51 50 50 49 50 50 49 50 50 50 50 49
47 47 47 47 47 48 48 48 47 48 48 48 48 48 48 48 48 48 47 48 48 48 48 49 49 49 49 49 49 49 49 49 49 50 50 49 49 49
47 47 46 45 46 47 47 46 45 45 45 46 47 48 47 46 46 46 46 48 48 48 47 48 48 48 47 47 48 48 48 48 49 49 49 48 48 48
45 45 45 45 45 45 45 44 44 45 45 46 45 45 46 46 46 47 47 48 48 48 47 47 46 46 46 46 46 47 47 48 48 47 47 47 47 47
43 43 43 43 43 43 43 43 43 44 44 44 44 44 44 45 45 46 46 46 46 46 45 45 45 45 45 45 45 46 46 46 46 46 46 45 45 45
42 40 41 41 41 41 41 42 42 41 41 42 43 43 43 43 43 43 44 44 44 43 43 44 43 43 43 43 44 44 44 44 44 44 44 45 45 44
41 40 39 40 40 40 41 41 41 40 41 41 42 42 42 42 42 43 43 42 42 41 41 41 41 41 42 42 43 43 43 42 43 43 44 44 43 42
38 38 39 39 38 39 40 41 41 42 42 41 41 41 41 41 40 40 40 39 40 40 40 40 41 41 42 43 42 42 42 41 41 41 41 41 41 41
37 37 37 38 38 39 39 39 40 41 41 41 41 40 40 40 39 39 39 39 39 39 39 39 40 41 41 41 40 40 40 40 40 40 40 40 40 40
36 35 35 35 36 36 37 37 38 39 39 39 39 39 39 39 39 38 38 38 38 38 38 38 39 39 39 39 39 39 40 40 39 39 39 39 37 36
35 35 34 34 34 35 35 36 36 36 36 37 37 37 38 38 38 37 37 37 37 36 36 36 36 37 37 38 38 38 39 39 38 38 38 37 35 34
33 33 33 33 33 33 34 34 34 34 34 35 35 36 36 36 36 36 36 35 35 35 35 35 36 37 38 38 37 37 37 37 37 36 34 33 31 30
30 31 31 32 32 32 32 33 33 33 33 33 34 34 34 34 35 35 35 35 35 36 35 35 36 37 37 36 35 35 34 34 33 32 30 28 27 26
29 29 30 30 31 31 31 31 31 32 32 32 32 33 34 34 34 34 34 34 34 35 35 35 36 35 35 34 33 31 30 29 28 27 26 25 24 22
Wind_Direction
264 264 264 265 267 268 270 271 271 272 273 274 275 276 277 278 279 280 281 281 282 284 286 287 287 288 289 290 291 293 294 294 295 295 295 296 296 296
264 264 264 264 265 267 268 270 270 272 272 273 274 275 277 278 280 280 281 281 282 284 285 286 287 288 289 290 292 294 294 294 295 295 295 295 296 296
263 263 263 264 264 266 267 268 269 270 272 272 273 274 275 276 277 279 280 281 282 283 284 285 286 287 288 290 292 294 294 295 295 295 295 295 296 297
263 263 264 264 265 266 267 268 268 269 270 271 272 273 274 276 277 278 280 281 282 283 284 284 285 287 288 290 292 294 294 294 295 295 295 295 296 297
263 264 264 265 266 266 267 267 267 268 269 271 272 272 274 275 277 278 279 281 282 283 283 284 285 287 288 289 292 293 294 294 294 294 294 295 296 298
263 263 263 264 265 265 266 266 267 268 269 271 271 272 273 275 276 278 279 280 281 282 283 284 285 287 288 290 292 293 293 293 293 293 294 295 296 297
262 262 262 263 264 265 265 266 267 267 269 271 272 272 272 273 276 278 279 280 280 282 284 285 286 287 289 290 292 292 292 292 292 293 294 295 297 298
262 262 262 262 263 264 265 265 266 268 270 271 272 272 272 274 277 278 279 279 280 282 285 286 287 287 288 290 291 291 291 291 292 293 295 296 297 297
262 262 262 262 263 263 264 264 265 267 269 270 270 272 273 274 276 277 279 280 282 284 286 286 287 288 289 290 290 291 292 292 293 294 296 296 297 297
262 263 263 264 263 264 264 264 265 266 268 269 270 272 274 275 276 278 279 281 283 284 286 287 288 289 290 291 291 292 293 293 293 294 295 296 297 298
262 262 263 264 264 263 264 264 265 267 268 269 270 272 273 275 276 278 280 281 284 286 287 288 288 290 290 291 291 293 293 293 294 295 296 296 297 298
262 263 263 263 262 262 264 265 266 266 267 269 271 272 273 275 277 279 281 282 284 286 287 288 289 289 290 291 292 293 293 294 295 296 296 297 297 298
262 262 261 261 261 261 262 264 266 267 268 270 271 272 273 276 277 278 280 283 285 287 288 288 289 289 290 291 291 292 293 294 296 297 298 298 299 299
263 262 261 261 261 261 263 264 266 268 270 270 272 273 275 277 278 280 282 284 286 287 288 288 289 289 289 291 292 293 295 296 296 298 299 300 300 300
262 262 263 263 263 263 264 264 265 267 270 272 273 275 278 279 281 282 284 286 286 286 287 289 290 288 289 291 293 295 296 296 297 298 299 300 300 299
261 262 263 264 263 263 263 263 265 268 271 274 276 277 280 281 282 283 285 287 286 285 287 289 289 288 289 292 294 295 297 297 298 298 299 300 300 300
263 262 262 263 263 262 262 264 267 269 272 275 276 278 279 280 281 284 286 286 286 286 287 288 288 289 291 293 294 296 298 299 299 300 300 300 300 301
263 263 263 262 262 263 265 267 269 270 272 274 276 277 279 280 282 285 286 286 286 286 286 288 288 290 292 294 295 296 298 300 300 300 300 300 300 300
262 262 263 263 264 266 267 268 270 271 273 274 276 277 280 282 283 285 286 286 286 287 287 288 289 291 292 293 294 296 298 299 300 300 300 301 301 301
260 261 262 263 264 266 267 267 270 272 273 274 276 278 280 282 284 285 286 285 286 287 287 289 290 291 292 293 294 296 298 299 299 299 300 302 302 302
259 260 261 264 265 267 268 269 270 272 274 276 277 279 280 282 283 285 286 286 285 287 288 290 291 291 292 294 294 296 297 298 300 300 301 302 302 302
260 261 262 265 266 267 270 271 270 272 275 277 278 279 280 282 284 285 286 286 287 288 289 290 291 291 293 294 295 296 297 299 301 302 303 304 304 304
262 263 264 265 266 268 270 271 271 273 275 276 278 279 281 282 284 285 287 287 288 289 289 289 290 291 292 293 294 295 297 300 301 303 304 306 307 308
Height
5670 5670 5670 5671 5670 5670 5669 5669 5668 5668 5669 5668 5667 5665 5663 5662 5660 5658 5657 5654 5652 5650 5647 5645 5642 5639 5636 5633 5629 5625 5621 5616 5611 5607 5602 5596 5591 5586
5656 5656 5657 5657 5657 5656 5656 5655 5654 5654 5655 5656 5655 5653 5651 5650 5648 5646 5644 5642 5640 5637 5635 5632 5630 5627 5623 5620 5616 5612 5608 5603 5598 5593 5588 5583 5578 5573
5642 5642 5643 5643 5642 5642 5642 5642 5641 5641 5641 5643 5641 5640 5638 5637 5635 5633 5632 5630 5627 5625 5622 5620 5617 5614 5611 5607 5603 5599 5594 5590 5585 5579 5574 5569 5564 5559
5627 5627 5628 5628 5628 5628 5628 5628 5627 5627 5627 5628 5628 5627 5625 5624 5623 5621 5619 5617 5615 5612 5610 5607 5604 5601 5598 5594 5590 5585 5581 5576 5571 5566 5561 5556 5550 5545
5611 5611 5612 5612 5613 5613 5613 5613 5613 5613 5613 5613 5614 5614 5612 5611 5609 5608 5606 5604 5601 5599 5596 5594 5591 5587 5584 5580 5576 5572 5567 5562 5557 5552 5547 5542 5537 5531
5595 5596 5597 5598 5599 5599 5599 5599 5599 5599 5599 5599 5600 5600 5599 5597 5595 5594 5592 5590 5588 5586 5583 5580 5577 5574 5570 5567 5563 5558 5553 5548 5543 5538 5533 5528 5523 5518
5580 5581 5582 5583 5583 5584 5585 5586 5585 5585 5586 5585 5586 5585 5585 5584 5583 5580 5578 5577 5575 5572 5570 5567 5564 5560 5556 5552 5548 5543 5539 5534 5530 5525 5520 5515 5509 5504
5565 5566 5568 5569 5569 5570 5571 5571 5571 5572 5572 5572 5572 5571 5571 5570 5569 5567 5565 5563 5562 5561 5556 5553 5549 5546 5542 5538 5534 5529 5525 5520 5516 5511 5506 5501 5496 5490
5551 5552 5553 5554 5555 5556 5557 5557 5557 5558 5558 5558 5558 5558 5557 5556 5555 5553 5551 5549 5548 5546 5542 5539 5535 5532 5528 5523 5519 5515 5511 5506 5502 5497 5492 5487 5481 5476
5537 5538 5539 5540 5541 5542 5543 5543 5544 5545 5545 5544 5544 5544 5543 5542 5540 5539 5537 5535 5534 5531 5528 5525 5522 5518 5513 5509 5505 5501 5497 5493 5488 5483 5479 5473 5468 5463
5524 5525 5525 5526 5528 5528 5529 5530 5532 5533 5532 5531 5531 5530 5529 5528 5527 5525 5523 5521 5520 5517 5514 5510 5507 5504 5499 5495 5491 5487 5483 5479 5474 5470 5465 5460 5455 5449
5511 5512 5513 5513 5514 5515 5516 5518 5519 5519 5519 5518 5518 5517 5516 5515 5513 5512 5510 5508 5506 5504 5501 5497 5493 5489 5487 5483 5478 5474 5469 5465 5460 5456 5451 5446 5441 5436
5498 5499 5500 5500 5501 5502 5503 5505 5506 5506 5506 5505 5505 5504 5503 5502 5500 5498 5496 5494 5492 5489 5487 5483 5480 5476 5473 5470 5466 5461 5457 5452 5447 5442 5437 5432 5427 5422
5485 5486 5487 5488 5489 5490 5491 5492 5493 5493 5493 5492 5492 5491 5490 5489 5487 5485 5483 5480 5478 5476 5473 5470 5467 5464 5460 5457 5453 5449 5444 5439 5434 5429 5424 5419 5414 5409
5473 5474 5475 5476 5477 5478 5480 5481 5481 5481 5481 5481 5480 5479 5478 5476 5474 5472 5469 5467 5464 5462 5459 5457 5454 5451 5447 5444 5441 5437 5432 5427 5422 5417 5412 5407 5402 5397
5461 5462 5463 5464 5466 5467 5468 5469 5469 5470 5470 5469 5468 5467 5466 5464 5462 5460 5457 5454 5452 5449 5447 5444 5441 5439 5435 5432 5428 5424 5420 5416 5411 5405 5400 5395 5389 5385
5449 5450 5452 5454 5455 5456 5457 5458 5458 5458 5458 5458 5456 5455 5454 5452 5450 5448 5446 5443 5440 5438 5435 5432 5430 5427 5424 5420 5416 5412 5408 5404 5399 5394 5389 5383 5377 5373
5438 5440 5441 5443 5444 5446 5446 5446 5446 5447 5446 5446 5445 5444 5443 5441 5439 5437 5434 5432 5430 5427 5424 5421 5418 5415 5412 5408 5405 5401 5397 5393 5388 5383 5378 5373 5367 5362
5428 5429 5431 5432 5434 5435 5435 5435 5435 5435 5435 5434 5434 5433 5432 5430 5428 5426 5423 5421 5418 5416 5413 5410 5408 5404 5401 5398 5395 5391 5387 5382 5377 5372 5367 5362 5357 5352
5417 5419 5421 5422 5423 5424 5424 5424 5425 5424 5424 5423 5422 5421 5420 5419 5417 5414 5412 5410 5408 5405 5402 5400 5397 5394 5391 5388 5384 5380 5376 5371 5366 5361 5356 5351 5346 5342
5407 5409 5410 5412 5413 5413 5414 5414 5414 5414 5413 5413 5412 5410 5409 5407 5406 5404 5402 5400 5397 5395 5392 5389 5386 5384 5380 5377 5373 5369 5365 5360 5356 5351 5346 5342 5338 5333
5398 5399 5401 5402 5402 5403 5403 5403 5403 5403 5403 5402 5401 5400 5398 5397 5395 5393 5391 5389 5387 5384 5382 5379 5375 5372 5369 5366 5362 5359 5355 5351 5346 5341 5337 5334 5330 5326
5389 5390 5391 5392 5392 5393 5393 5393 5393 5393 5392 5392 5391 5389 5388 5386 5384 5383 5381 5378 5376 5373 5371 5368 5365 5362 5359 5356 5353 5349 5345 5342 5338 5334 5330 5327 5323 5320